Location: *
(50.3440°N, 18.6237°E)
Time: 09:36:40
(UTC+00:00)

X-37B - Visible Passes

Search period start: 04 March 2021 00:00
Search period end: 14 March 2021 00:00
Orbit: 383 x 391 km, 45.0° (Epoch: 27 February)

Date Brightness Start Highest point End Pass type
(mag) Time Alt. Az. Time Alt. Az. Time Alt. Az.
12 Mar 2.8 18:21:50 10° SSW 18:23:05 15° S 18:23:05 15° S visible
13 Mar 3.0 17:24:49 10° SSE 17:25:47 11° SSE 17:26:45 10° SE visible
13 Mar 3.0 18:58:59 10° SW 18:59:58 16° SW 18:59:58 16° SW visible
